Home   Weather   Worb   Past weeks

Flag for Switzerland Past Weather in Worb, Bern, Switzerland — Yesterday and Last 2 Weeks

Now
72 °F

Sunny.


Feels Like: 76 °F
Forecast: 44 / 72 °F
Wind: 2 mph from North

Location: Bern / Belp

Current Time: Sep 28, 2016 at 7:16:29 PM

Latest Report: Sep 28, 2016 at 6:20 PM


Visibility: 10 mi

Pressure: 30.39 "Hg (28.41 "Hg at 583m altitude)

Humidity: 57%

Dew Point: 55 °F

Location of WorbLocation

Past Weather in Worb — Graph

°F

Worb Temperature Yesterday

Maximum temperature yesterday: 70 °F (at 4:50 PM)
Minimum temperature yesterday: 50 °F (at 10:50 PM)
Average temperature yesterday: 59 °F

High & Low Weather Summary for the Past Weeks

 TemperatureHumidityPressure
High81 °F (Sep 13, 6:20 PM)100% (Sep 14, 1:20 AM)30.48 "Hg (Sep 14, 1:20 AM)
Low43 °F (Sep 22, 2:20 AM)47% (Sep 25, 4:20 PM)29.80 "Hg (Sep 15, 2:20 AM)
Average58 °F86%30.11 "Hg
* Reported Sep 13 6:20 PM — Sep 28 6:20 PM, Worb, Weather by CustomWeather, © 2016

Note: Actual official high and low records may vary slightly from our data, if they occured in-between our weather recording intervals... More about our weather records

Advertising

Worb Weather History for the Previous 24 Hours

Scroll right to see more
 ConditionsComfort  
Time TempWeatherWind HumidityBarometerVisibility
6:20 PM
Wed, Sep 28
72 °FSunny.2 mph57%30.39 "Hg10 mi
5:50 PM73 °FSunny.1 mph50%30.39 "Hg10 mi
5:20 PM72 °FSunny.3 mph53%30.39 "Hg10 mi
4:50 PM72 °FSunny.2 mph50%30.39 "Hg10 mi
4:20 PM72 °FSunny.3 mph47%30.39 "Hg10 mi
3:50 PM72 °FSunny.1 mph53%30.39 "Hg10 mi
3:20 PM72 °FSunny.3 mph53%30.42 "Hg10 mi
2:50 PM70 °FSunny.3 mph53%30.42 "Hg10 mi
2:20 PM70 °FSunny.5 mph60%30.42 "Hg10 mi
1:50 PM70 °FPassing clouds.7 mph64%30.42 "HgN/A
1:20 PM66 °FSunny.2 mph68%30.45 "Hg10 mi
12:50 PM66 °FSunny.2 mph64%30.45 "Hg10 mi
12:20 PM64 °FSunny.2 mph68%30.45 "Hg10 mi
11:50 AM63 °FSunny.1 mph73%30.48 "Hg10 mi
11:20 AM63 °FSunny.2 mph73%30.48 "Hg10 mi
10:50 AM61 °FSunny.3 mph77%30.48 "Hg10 mi
10:20 AM59 °FSunny.1 mph82%30.48 "Hg10 mi
9:50 AM55 °FSunny.1 mph88%30.45 "Hg10 mi
9:20 AM52 °FSunny.2 mph100%30.45 "Hg10 mi
8:50 AM48 °FSunny.1 mph100%30.45 "Hg10 mi
8:20 AM46 °FLight fog.1 mph100%30.45 "HgN/A
7:50 AM45 °FFog.1 mph100%30.45 "HgN/A
7:20 AM45 °FFog.1 mph100%30.42 "HgN/A
6:50 AM46 °FFog.2 mph100%30.42 "Hg3 mi
6:20 AM45 °FFog.3 mph100%30.42 "Hg3 mi
5:50 AM45 °FFog.1 mph100%30.42 "Hg3 mi
5:20 AM46 °FFog.1 mph100%30.42 "Hg2 mi
4:50 AM46 °FFog.2 mph100%30.42 "Hg2 mi
4:20 AM46 °FCool.2 mph100%30.42 "Hg3 mi
3:50 AM46 °FPassing clouds.2 mph100%30.42 "Hg4 mi
3:20 AM46 °FCool.1 mph100%30.42 "Hg4 mi
2:50 AM48 °FCool.1 mph94%30.42 "Hg3 mi
2:20 AM46 °FFog.1 mph100%30.39 "Hg2 mi
1:50 AM48 °FCool.2 mph100%30.39 "Hg3 mi
1:20 AM50 °FCool.1 mph100%30.39 "Hg4 mi
12:50 AM48 °FCool.1 mph100%30.39 "Hg3 mi
12:20 AM48 °FFog.2 mph100%30.39 "Hg2 mi
11:50 PM
Tue, Sep 27
50 °FFog.1 mph100%30.39 "Hg1 mi
11:20 PM50 °FFog.1 mph100%30.36 "Hg2 mi
10:50 PM50 °FCool.1 mph100%30.36 "Hg4 mi
10:20 PM52 °FCool.1 mph94%30.36 "Hg5 mi
9:50 PM52 °FPassing clouds.1 mph100%30.36 "HgN/A
9:20 PM54 °FPassing clouds.1 mph100%30.36 "HgN/A
8:50 PM55 °FPassing clouds.1 mph100%30.36 "HgN/A
8:20 PM57 °FPassing clouds.1 mph88%30.33 "HgN/A
7:50 PM59 °FPassing clouds.1 mph82%30.33 "HgN/A
7:20 PM63 °FClear.1 mph73%30.33 "Hg10 mi
Weather by CustomWeather, © 2016

See weather overviewHow to use our weather pages